Weather in Baler

Philippines     15°45′33″N   121°33′45″E
temp.,
°C
wind,
m/s
gust,
m/s
humid.,
%
clouds,
%
prec.,
mm/h
press.,
hPa
HPBL,
m
13 may, thu
thu1323:00+23e019620 0.6 101242
02:00+23e019849 0.9 101156
05:00+22nne019796 0.0 101139
08:00+27ene247934 0.1 1012758
11:00+30ene34565 0.1 10111283
14:00+31ene345514 0.1 10091136
17:00+27e347528 0.0 1009836
20:00+24e229228 0.1 1011108
14 may, fri
fri1423:00+23ene129117 0.0 101252
02:00+22nw11948 0.0 101133
05:00+22w119544 0.0 101126
08:00+27ene247162 0.0 1012688
11:00+30ene34582 0.0 10111285
14:00+30ene44570 0.0 10091298
17:00+27e34715 0.0 1009763
20:00+24ene129325 0.0 101141
15 may, sat
sat1523:00+24ne129319 0.1 101273
02:00+23ne119715 0.6 101033
05:00+22ne019848 0.3 101143
08:00+26ene248733 0.7 1012511
11:00+30ene35621 0.4 10111234
14:00+30ene45601 0.6 10091319
17:00+27e34745 0.0 1009812
20:00+24ene129522 0.1 101152
16 may, sun
sun1623:00+24ene119727 0.4 101144
02:00+23ene019837 0.8 101054
05:00+23wnw019934 0.1 101052
08:00+26ene248324 0.5 1011582
11:00+30e35608 0.3 10111299
14:00+31e34575 0.4 10091288
17:00+28e24725 0.0 1009781
20:00+24e119531 0.1 101131
17 may, mon
mon1723:00+24ene119598 0.2 101137
02:00+23ene0197100 0.6 100935
05:00+23n119768 0.3 101038
08:00+27e237915 0.9 1011632
11:00+31ene33605 0.4 10111254
14:00+31e34555 0.4 10091126
17:00+28e34717 0.0 1009832
20:00+24ese019241 0.0 101124